Total_Precipitation_Accumulation
0.04 0.05 0.04 0.05 0.05 0.03 0.04 0.04 0.03 0.02 0.02 0.03 0.03 0.02 0.03 0.04 0.03 0.02 0.02 0.03 0.02 0.03 0.04 0.02 0.03 0.02 0.01 0.02 0.00 0.00 0.00 0.01 0.00 0.00 0.00 0.00 0.00 0.00 0.00 0.00 0.00 0.00 0.00 0.00 0.00 0.00 0.00 0.00 0.00 0.00 0.00 0.00 0.00 0.00 0.00 0.00 0.00 0.00 0.00 0.00 0.00 0.00 0.00 0.00 0.00 0.00 0.00 0.00 0.00 0.00 0.00 0.00 0.00 0.00 0.00 0.00 0.00 0.00 0.00 0.00 0.01 0.02 0.05 0.13 0.08 0.15 0.07 0.14
0.05 0.04 0.04 0.05 0.03 0.04 0.03 0.03 0.02 0.02 0.02 0.01 0.02 0.03 0.03 0.03 0.04 0.04 0.03 0.03 0.03 0.02 0.01 0.03 0.01 0.01 0.01 0.00 0.00 0.00 0.00 0.00 0.00 0.00 0.00 0.00 0.00 0.00 0.00 0.00 0.00 0.00 0.00 0.00 0.00 0.00 0.00 0.00 0.00 0.00 0.00 0.00 0.00 0.00 0.00 0.00 0.00 0.00 0.00 0.00 0.00 0.00 0.00 0.00 0.00 0.00 0.00 0.00 0.00 0.00 0.00 0.00 0.00 0.00 0.00 0.01 0.00 0.00 0.00 0.01 0.01 0.05 0.15 0.20 0.23 0.19 0.14 0.17
0.04 0.05 0.05 0.04 0.04 0.03 0.03 0.02 0.02 0.01 0.02 0.02 0.03 0.04 0.03 0.03 0.03 0.04 0.03 0.02 0.02 0.01 0.01 0.00 0.01 0.00 0.00 0.00 0.00 0.00 0.00 0.00 0.00 0.00 0.00 0.00 0.00 0.00 0.00 0.00 0.00 0.00 0.00 0.00 0.00 0.00 0.00 0.00 0.00 0.00 0.00 0.00 0.00 0.00 0.00 0.00 0.00 0.00 0.00 0.00 0.00 0.00 0.00 0.00 0.00 0.00 0.00 0.00 0.00 0.00 0.00 0.00 0.00 0.00 0.00 0.01 0.01 0.00 0.00 0.04 0.02 0.07 0.27 0.21 0.29 0.22 0.24 0.35
0.05 0.04 0.04 0.05 0.04 0.03 0.03 0.02 0.02 0.02 0.03 0.05 0.03 0.04 0.03 0.03 0.02 0.02 0.04 0.03 0.01 0.01 0.01 0.01 0.01 0.00 0.00 0.00 0.00 0.00 0.00 0.00 0.00 0.00 0.00 0.00 0.00 0.00 0.00 0.00 0.00 0.00 0.00 0.00 0.00 0.00 0.00 0.00 0.00 0.00 0.00 0.00 0.00 0.00 0.00 0.00 0.00 0.00 0.00 0.00 0.00 0.00 0.00 0.00 0.00 0.00 0.00 0.00 0.00 0.00 0.00 0.00 0.00 0.00 0.00 0.00 0.00 0.03 0.01 0.00 0.03 0.10 0.21 0.21 0.23 0.29 0.22 0.35
0.04 0.04 0.04 0.03 0.03 0.03 0.02 0.02 0.02 0.03 0.03 0.04 0.04 0.03 0.05 0.02 0.03 0.02 0.02 0.02 0.01 0.02 0.01 0.01 0.01 0.00 0.00 0.01 0.00 0.00 0.00 0.00 0.00 0.00 0.00 0.00 0.00 0.00 0.00 0.00 0.00 0.00 0.00 0.00 0.00 0.00 0.00 0.00 0.00 0.00 0.00 0.00 0.00 0.00 0.00 0.00 0.00 0.00 0.00 0.00 0.00 0.00 0.00 0.00 0.00 0.00 0.00 0.00 0.00 0.00 0.00 0.00 0.00 0.00 0.00 0.00 0.00 0.01 0.00 0.03 0.01 0.06 0.04 0.17 0.25 0.23 0.16 0.27
0.04 0.04 0.04 0.04 0.04 0.03 0.03 0.02 0.02 0.03 0.03 0.03 0.03 0.03 0.02 0.03 0.02 0.03 0.02 0.02 0.02 0.01 0.01 0.01 0.01 0.00 0.00 0.00 0.00 0.00 0.00 0.00 0.00 0.00 0.00 0.00 0.00 0.00 0.00 0.00 0.00 0.00 0.00 0.00 0.00 0.00 0.00 0.00 0.00 0.00 0.00 0.00 0.00 0.00 0.00 0.00 0.00 0.00 0.00 0.00 0.00 0.00 0.00 0.00 0.00 0.00 0.00 0.00 0.00 0.00 0.00 0.00 0.00 0.00 0.00 0.00 0.00 0.00 0.00 0.00 0.00 0.03 0.05 0.10 0.09 0.12 0.22 0.28
0.03 0.04 0.03 0.04 0.03 0.03 0.03 0.03 0.03 0.03 0.02 0.03 0.03 0.03 0.03 0.05 0.03 0.03 0.02 0.02 0.02 0.02 0.01 0.01 0.00 0.00 0.00 0.00 0.00 0.00 0.00 0.00 0.00 0.00 0.00 0.00 0.00 0.00 0.00 0.00 0.00 0.00 0.00 0.00 0.00 0.00 0.00 0.00 0.00 0.00 0.00 0.00 0.00 0.00 0.00 0.00 0.00 0.00 0.00 0.00 0.00 0.00 0.00 0.00 0.00 0.00 0.00 0.00 0.00 0.00 0.00 0.00 0.00 0.00 0.00 0.00 0.00 0.00 0.00 0.00 0.01 0.05 0.12 0.11 0.15 0.11 0.09 0.20
0.03 0.03 0.04 0.03 0.03 0.03 0.03 0.03 0.03 0.02 0.02 0.03 0.04 0.03 0.03 0.03 0.04 0.02 0.02 0.02 0.01 0.01 0.01 0.01 0.00 0.00 0.00 0.00 0.00 0.00 0.00 0.00 0.00 0.00 0.00 0.00 0.00 0.00 0.00 0.00 0.00 0.00 0.00 0.00 0.00 0.00 0.00 0.00 0.00 0.00 0.00 0.00 0.00 0.00 0.00 0.00 0.00 0.00 0.00 0.00 0.00 0.00 0.00 0.00 0.00 0.00 0.00 0.00 0.00 0.00 0.00 0.00 0.00 0.00 0.00 0.00 0.00 0.00 0.00 0.00 0.02 0.04 0.06 0.18 0.16 0.16 0.23 0.33
0.04 0.02 0.03 0.03 0.03 0.02 0.03 0.02 0.02 0.04 0.02 0.02 0.03 0.03 0.03 0.02 0.02 0.02 0.01 0.02 0.01 0.01 0.02 0.01 0.00 0.00 0.00 0.00 0.00 0.00 0.00 0.00 0.00 0.00 0.00 0.00 0.00 0.00 0.00 0.00 0.00 0.00 0.00 0.00 0.00 0.00 0.00 0.00 0.00 0.00 0.00 0.00 0.00 0.00 0.00 0.00 0.00 0.00 0.00 0.00 0.00 0.00 0.00 0.00 0.00 0.00 0.00 0.00 0.00 0.00 0.00 0.00 0.00 0.00 0.00 0.00 0.00 0.00 0.00 0.01 0.01 0.06 0.16 0.19 0.21 0.23 0.27 0.37
0.04 0.04 0.03 0.03 0.02 0.02 0.02 0.03 0.02 0.03 0.04 0.03 0.03 0.02 0.03 0.02 0.01 0.03 0.01 0.01 0.01 0.01 0.02 0.01 0.00 0.01 0.00 0.00 0.00 0.00 0.00 0.00 0.00 0.00 0.00 0.00 0.00 0.00 0.00 0.00 0.00 0.00 0.00 0.00 0.00 0.00 0.00 0.00 0.00 0.00 0.00 0.00 0.00 0.00 0.00 0.00 0.00 0.00 0.00 0.00 0.00 0.00 0.00 0.00 0.00 0.00 0.00 0.00 0.00 0.00 0.00 0.00 0.00 0.00 0.00 0.00 0.00 0.00 0.00 0.01 0.05 0.04 0.12 0.21 0.16 0.34 0.50 0.38
0.04 0.03 0.03 0.02 0.03 0.02 0.02 0.02 0.02 0.03 0.04 0.02 0.02 0.03 0.02 0.01 0.01 0.01 0.02 0.01 0.01 0.01 0.02 0.01 0.01 0.00 0.00 0.02 0.01 0.00 0.00 0.00 0.00 0.00 0.00 0.00 0.00 0.00 0.00 0.00 0.00 0.00 0.00 0.00 0.00 0.00 0.00 0.00 0.00 0.00 0.00 0.00 0.00 0.00 0.00 0.00 0.00 0.00 0.00 0.00 0.00 0.00 0.00 0.00 0.00 0.00 0.00 0.00 0.00 0.00 0.00 0.00 0.00 0.00 0.00 0.00 0.01 0.01 0.00 0.02 0.05 0.06 0.17 0.22 0.22 0.21 0.22 0.22
0.04 0.04 0.03 0.02 0.04 0.03 0.02 0.02 0.03 0.02 0.02 0.03 0.03 0.02 0.02 0.02 0.02 0.01 0.01 0.02 0.01 0.01 0.01 0.01 0.01 0.06 0.01 0.01 0.02 0.00 0.00 0.00 0.00 0.00 0.00 0.00 0.00 0.00 0.00 0.00 0.00 0.00 0.00 0.00 0.00 0.00 0.00 0.00 0.00 0.00 0.00 0.00 0.00 0.00 0.00 0.00 0.00 0.00 0.00 0.00 0.00 0.00 0.00 0.00 0.00 0.00 0.00 0.00 0.00 0.00 0.00 0.00 0.00 0.00 0.00 0.00 0.01 0.01 0.00 0.03 0.04 0.12 0.15 0.20 0.25 0.25 0.26 0.21
0.04 0.04 0.03 0.03 0.03 0.05 0.02 0.02 0.02 0.02 0.01 0.02 0.02 0.01 0.01 0.01 0.01 0.01 0.01 0.01 0.00 0.01 0.00 0.02 0.01 0.02 0.05 0.04 0.00 0.00 0.00 0.00 0.00 0.00 0.00 0.00 0.00 0.00 0.00 0.00 0.00 0.00 0.00 0.00 0.00 0.00 0.00 0.00 0.00 0.00 0.00 0.00 0.00 0.00 0.00 0.00 0.00 0.00 0.00 0.00 0.00 0.00 0.00 0.00 0.00 0.00 0.00 0.00 0.00 0.00 0.00 0.00 0.00 0.00 0.00 0.01 0.01 0.01 0.03 0.04 0.09 0.11 0.14 0.20 0.22 0.38 0.33 0.42
0.05 0.05 0.04 0.04 0.02 0.03 0.03 0.02 0.01 0.01 0.01 0.01 0.01 0.01 0.01 0.01 0.01 0.01 0.01 0.01 0.02 0.01 0.01 0.01 0.03 0.02 0.03 0.00 0.00 0.00 0.00 0.00 0.00 0.00 0.00 0.00 0.00 0.00 0.00 0.00 0.00 0.00 0.00 0.00 0.00 0.00 0.00 0.00 0.00 0.00 0.00 0.00 0.00 0.00 0.00 0.00 0.00 0.00 0.00 0.00 0.00 0.00 0.00 0.00 0.00 0.00 0.00 0.00 0.00 0.00 0.00 0.00 0.00 0.00 0.00 0.01 0.00 0.00 0.02 0.04 0.08 0.10 0.13 0.18 0.23 0.29 0.31 0.50
0.03 0.03 0.04 0.04 0.04 0.03 0.04 0.02 0.02 0.01 0.01 0.01 0.00 0.01 0.01 0.01 0.01 0.01 0.01 0.01 0.02 0.01 0.02 0.08 0.04 0.03 0.05 0.00 0.00 0.00 0.00 0.00 0.00 0.00 0.00 0.00 0.00 0.00 0.00 0.00 0.00 0.00 0.00 0.00 0.00 0.00 0.00 0.00 0.00 0.00 0.00 0.00 0.00 0.00 0.00 0.00 0.00 0.00 0.00 0.00 0.00 0.00 0.00 0.00 0.00 0.00 0.00 0.00 0.00 0.00 0.00 0.00 0.00 0.00 0.00 0.01 0.01 0.01 0.01 0.04 0.14 0.11 0.09 0.15 0.17 0.33 0.28 0.39
0.05 0.04 0.03 0.03 0.03 0.03 0.03 0.05 0.02 0.01 0.01 0.01 0.01 0.01 0.00 0.01 0.01 0.00 0.00 0.00 0.01 0.02 0.01 0.03 0.01 0.02 0.01 0.00 0.00 0.00 0.00 0.00 0.00 0.00 0.00 0.00 0.00 0.00 0.00 0.00 0.00 0.00 0.00 0.00 0.00 0.00 0.00 0.00 0.00 0.00 0.00 0.00 0.00 0.00 0.00 0.00 0.00 0.00 0.00 0.00 0.00 0.00 0.00 0.00 0.00 0.00 0.00 0.00 0.00 0.00 0.00 0.00 0.00 0.00 0.00 0.01 0.01 0.01 0.01 0.03 0.10 0.08 0.08 0.15 0.15 0.14 0.15 0.22
0.05 0.06 0.04 0.03 0.03 0.02 0.01 0.03 0.02 0.01 0.01 0.01 0.01 0.00 0.01 0.00 0.00 0.00 0.01 0.02 0.02 0.02 0.08 0.01 0.00 0.01 0.01 0.00 0.00 0.00 0.00 0.00 0.00 0.00 0.00 0.00 0.00 0.00 0.00 0.00 0.00 0.00 0.00 0.00 0.00 0.00 0.00 0.00 0.00 0.00 0.00 0.00 0.00 0.00 0.00 0.00 0.00 0.00 0.00 0.00 0.00 0.00 0.00 0.01 0.00 0.00 0.00 0.00 0.00 0.00 0.00 0.00 0.00 0.00 0.00 0.02 0.01 0.01 0.01 0.03 0.10 0.11 0.13 0.12 0.16 0.17 0.12 0.12
0.04 0.04 0.04 0.02 0.02 0.02 0.02 0.01 0.03 0.02 0.01 0.01 0.01 0.01 0.00 0.00 0.01 0.00 0.01 0.01 0.01 0.01 0.01 0.00 0.00 0.02 0.00 0.00 0.00 0.00 0.00 0.00 0.00 0.00 0.00 0.00 0.00 0.00 0.00 0.00 0.00 0.00 0.00 0.00 0.00 0.00 0.00 0.00 0.00 0.00 0.00 0.00 0.00 0.00 0.00 0.01 0.00 0.00 0.00 0.00 0.00 0.00 0.00 0.00 0.00 0.00 0.00 0.00 0.00 0.00 0.00 0.00 0.00 0.00 0.00 0.00 0.02 0.01 0.01 0.01 0.07 0.11 0.16 0.12 0.07 0.33 0.25 0.13
0.04 0.03 0.03 0.02 0.02 0.02 0.01 0.03 0.02 0.03 0.01 0.00 0.00 0.01 0.00 0.01 0.01 0.00 0.00 0.02 0.01 0.01 0.00 0.01 0.01 0.00 0.01 0.00 0.00 0.00 0.00 0.00 0.00 0.00 0.00 0.00 0.00 0.00 0.00 0.00 0.00 0.00 0.00 0.00 0.00 0.00 0.00 0.00 0.00 0.00 0.00 0.00 0.00 0.00 0.00 0.00 0.00 0.00 0.01 0.02 0.00 0.00 0.00 0.00 0.00 0.00 0.00 0.00 0.00 0.00 0.00 0.00 0.00 0.00 0.01 0.02 0.02 0.01 0.01 0.02 0.04 0.10 0.11 0.12 0.22 0.49 0.47 0.29
0.04 0.05 0.05 0.05 0.03 0.02 0.05 0.03 0.02 0.01 0.01 0.01 0.00 0.00 0.00 0.00 0.03 0.01 0.00 0.02 0.00 0.00 0.00 0.00 0.00 0.00 0.00 0.00 0.00 0.00 0.00 0.00 0.00 0.00 0.00 0.00 0.00 0.00 0.00 0.00 0.00 0.00 0.00 0.00 0.00 0.00 0.00 0.00 0.00 0.00 0.00 0.00 0.00 0.00 0.00 0.00 0.00 0.00 0.00 0.00 0.01 0.00 0.01 0.00 0.00 0.00 0.00 0.00 0.00 0.00 0.00 0.00 0.00 0.00 0.00 0.00 0.02 0.02 0.02 0.03 0.05 0.08 0.06 0.04 0.05 0.06 0.39 0.68
0.05 0.04 0.03 0.02 0.02 0.02 0.03 0.08 0.05 0.01 0.02 0.05 0.01 0.00 0.00 0.01 0.00 0.05 0.02 0.00 0.00 0.00 0.00 0.00 0.00 0.00 0.00 0.00 0.00 0.00 0.00 0.00 0.00 0.00 0.00 0.00 0.00 0.00 0.00 0.00 0.00 0.00 0.00 0.00 0.01 0.00 0.00 0.00 0.00 0.00 0.00 0.00 0.00 0.00 0.00 0.00 0.00 0.00 0.00 0.00 0.00 0.00 0.00 0.00 0.00 0.00 0.00 0.00 0.00 0.00 0.00 0.00 0.00 0.00 0.00 0.01 0.02 0.01 0.01 0.02 0.02 0.03 0.02 0.04 0.03 0.07 0.19 0.54
0.04 0.03 0.03 0.04 0.03 0.06 0.03 0.03 0.03 0.04 0.02 0.02 0.00 0.00 0.00 0.00 0.01 0.02 0.03 0.00 0.00 0.00 0.00 0.00 0.00 0.00 0.00 0.00 0.00 0.00 0.00 0.00 0.00 0.00 0.00 0.00 0.00 0.00 0.00 0.00 0.00 0.00 0.00 0.00 0.00 0.00 0.00 0.00 0.00 0.00 0.00 0.00 0.00 0.00 0.00 0.00 0.00 0.00 0.00 0.00 0.00 0.00 0.00 0.00 0.00 0.00 0.00 0.00 0.00 0.00 0.00 0.00 0.00 0.00 0.00 0.00 0.01 0.01 0.00 0.00 0.01 0.01 0.01 0.02 0.03 0.05 0.23 0.63
0.03 0.04 0.06 0.06 0.07 0.05 0.03 0.05 0.02 0.01 0.01 0.00 0.00 0.00 0.00 0.00 0.00 0.00 0.00 0.01 0.00 0.00 0.00 0.00 0.00 0.00 0.00 0.00 0.00 0.00 0.00 0.00 0.00 0.00 0.00 0.00 0.00 0.00 0.00 0.00 0.00 0.00 0.00 0.00 0.00 0.00 0.00 0.00 0.00 0.00 0.00 0.00 0.00 0.00 0.00 0.00 0.00 0.00 0.00 0.00 0.00 0.00 0.00 0.04 0.00 0.00 0.00 0.00 0.00 0.00 0.00 0.00 0.00 0.00 0.00 0.00 0.00 0.01 0.01 0.00 0.01 0.01 0.00 0.01 0.02 0.04 0.09 0.09
0.02 0.02 0.02 0.05 0.02 0.04 0.02 0.07 0.02 0.01 0.01 0.00 0.00 0.00 0.00 0.00 0.00 0.00 0.00 0.00 0.01 0.00 0.00 0.00 0.00 0.00 0.00 0.00 0.00 0.00 0.00 0.00 0.00 0.00 0.00 0.00 0.00 0.00 0.00 0.00 0.00 0.00 0.00 0.00 0.00 0.00 0.01 0.01 0.00 0.00 0.00 0.00 0.00 0.00 0.00 0.00 0.00 0.00 0.00 0.00 0.00 0.00 0.01 0.00 0.05 0.00 0.00 0.00 0.00 0.00 0.00 0.00 0.00 0.00 0.00 0.00 0.00 0.00 0.00 0.01 0.02 0.02 0.01 0.01 0.05 0.14 0.10 0.13
0.02 0.03 0.04 0.02 0.02 0.23 0.07 0.04 0.01 0.01 0.00 0.00 0.00 0.00 0.00 0.00 0.00 0.00 0.00 0.00 0.00 0.00 0.00 0.00 0.00 0.00 0.00 0.00 0.00 0.00 0.00 0.00 0.00 0.00 0.00 0.00 0.00 0.00 0.00 0.00 0.00 0.00 0.00 0.00 0.00 0.00 0.00 0.01 0.01 0.00 0.00 0.00 0.00 0.00 0.00 0.00 0.00 0.00 0.00 0.00 0.00 0.00 0.00 0.00 0.00 0.00 0.00 0.01 0.00 0.00 0.02 0.02 0.01 0.00 0.00 0.00 0.00 0.03 0.00 0.01 0.00 0.00 0.02 0.02 0.07 0.14 0.11 0.18
0.02 0.03 0.03 0.04 0.06 0.09 0.19 0.02 0.01 0.00 0.00 0.00 0.00 0.00 0.00 0.00 0.00 0.00 0.01 0.03 0.21 0.12 0.00 0.00 0.00 0.00 0.00 0.00 0.00 0.00 0.00 0.00 0.00 0.00 0.00 0.00 0.00 0.00 0.00 0.00 0.00 0.01 0.00 0.00 0.00 0.00 0.01 0.00 0.00 0.00 0.00 0.00 0.00 0.00 0.00 0.00 0.00 0.00 0.05 0.00 0.00 0.00 0.00 0.00 0.00 0.00 0.04 0.07 0.06 0.00 0.03 0.05 0.01 0.01 0.00 0.00 0.00 0.01 0.00 0.02 0.02 0.04 0.11 0.08 0.13 0.16 0.37 0.39
0.06 0.07 0.05 0.08 0.05 0.16 0.05 0.03 0.00 0.00 0.01 0.01 0.00 0.00 0.00 0.00 0.00 0.01 0.02 0.23 0.13 0.02 0.03 0.00 0.00 0.00 0.00 0.00 0.00 0.00 0.01 0.02 0.00 0.00 0.00 0.00 0.00 0.00 0.00 0.00 0.00 0.00 0.00 0.00 0.00 0.00 0.00 0.00 0.00 0.00 0.00 0.00 0.00 0.00 0.00 0.00 0.01 0.03 0.04 0.00 0.00 0.00 0.00 0.01 0.00 0.00 0.06 0.01 0.01 0.00 0.01 0.05 0.06 0.04 0.00 0.01 0.01 0.02 0.02 0.03 0.03 0.13 0.09 0.11 0.24 0.22 0.19 0.43
0.01 0.06 0.07 0.05 0.14 0.54 0.21 0.12 0.01 0.00 0.00 0.00 0.00 0.00 0.00 0.00 0.00 0.00 0.14 0.16 0.05 0.00 0.06 0.00 0.00 0.00 0.00 0.00 0.00 0.00 0.01 0.00 0.00 0.00 0.00 0.00 0.00 0.00 0.00 0.00 0.00 0.00 0.00 0.00 0.01 0.02 0.00 0.00 0.00 0.00 0.00 0.00 0.00 0.00 0.00 0.00 0.00 0.07 0.00 0.00 0.01 0.00 0.04 0.00 0.00 0.02 0.06 0.02 0.09 0.01 0.01 0.01 0.06 0.03 0.00 0.01 0.02 0.02 0.05 0.03 0.10 0.06 0.08 0.18 0.21 0.24 0.37 0.37
0.02 0.04 0.06 0.06 0.11 0.15 0.11 0.08 0.04 0.01 0.01 0.00 0.00 0.00 0.01 0.07 0.05 0.04 0.53 0.26 0.15 0.00 0.00 0.05 0.00 0.00 0.00 0.00 0.00 0.00 0.00 0.00 0.00 0.00 0.00 0.00 0.00 0.00 0.00 0.00 0.00 0.00 0.00 0.00 0.02 0.01 0.00 0.00 0.00 0.00 0.00 0.00 0.00 0.00 0.00 0.00 0.02 0.00 0.00 0.00 0.00 0.00 0.00 0.00 0.01 0.01 0.05 0.01 0.04 0.05 0.05 0.04 0.03 0.04 0.01 0.01 0.02 0.10 0.09 0.11 0.06 0.12 0.09 0.13 0.17 0.27 0.24 0.50
0.16 0.07 0.09 0.14 0.13 0.04 0.09 0.06 0.01 0.05 0.00 0.00 0.00 0.01 0.01 0.07 0.16 0.12 0.16 0.02 0.01 0.25 0.00 0.00 0.00 0.00 0.00 0.00 0.00 0.00 0.00 0.00 0.00 0.00 0.00 0.00 0.00 0.00 0.00 0.00 0.00 0.00 0.00 0.00 0.00 0.00 0.00 0.00 0.00 0.00 0.00 0.00 0.00 0.00 0.00 0.00 0.00 0.00 0.00 0.00 0.01 0.00 0.01 0.00 0.00 0.03 0.03 0.04 0.02 0.01 0.04 0.01 0.08 0.17 0.11 0.19 0.06 0.09 0.11 0.16 0.12 0.08 0.13 0.19 0.16 0.31 0.40 0.64
0.03 0.05 0.07 0.23 0.18 0.12 0.06 0.06 0.39 0.01 0.00 0.00 0.00 0.02 0.05 0.09 0.23 0.10 0.02 0.13 0.00 0.07 0.00 0.00 0.01 0.00 0.00 0.00 0.06 0.00 0.00 0.00 0.00 0.00 0.00 0.00 0.00 0.00 0.00 0.00 0.00 0.00 0.00 0.02 0.00 0.00 0.00 0.00 0.00 0.00 0.00 0.00 0.00 0.00 0.00 0.00 0.00 0.00 0.00 0.02 0.01 0.03 0.01 0.02 0.06 0.05 0.10 0.01 0.03 0.03 0.01 0.11 0.06 0.19 0.14 0.10 0.08 0.09 0.10 0.17 0.09 0.29 0.10 0.12 0.13 0.30 0.47 0.47
0.03 0.13 0.09 0.28 0.08 0.11 0.07 0.04 0.10 0.03 0.00 0.00 0.03 0.04 0.28 0.25 0.06 0.09 0.03 0.00 0.15 0.20 0.06 0.04 0.00 0.00 0.00 0.00 0.00 0.00 0.05 0.00 0.00 0.00 0.03 0.00 0.01 0.00 0.00 0.01 0.00 0.03 0.04 0.00 0.09 0.00 0.00 0.00 0.00 0.00 0.00 0.00 0.00 0.00 0.00 0.00 0.00 0.00 0.00 0.01 0.08 0.09 0.01 0.10 0.05 0.06 0.04 0.01 0.13 0.01 0.03 0.03 0.01 0.41 0.15 0.06 0.11 0.08 0.14 0.09 0.11 0.09 0.13 0.14 0.15 0.14 0.26 0.35
0.11 0.09 0.09 0.20 0.24 0.09 0.05 0.07 0.10 0.01 0.00 0.04 0.03 0.25 0.23 0.08 0.02 0.09 0.07 0.04 0.34 0.11 0.15 0.00 0.04 0.00 0.02 0.00 0.03 0.00 0.00 0.07 0.01 0.00 0.00 0.01 0.01 0.00 0.00 0.00 0.00 0.01 0.06 0.05 0.04 0.01 0.00 0.00 0.00 0.00 0.00 0.00 0.00 0.00 0.06 0.01 0.00 0.00 0.01 0.11 0.06 0.14 0.04 0.03 0.11 0.04 0.07 0.03 0.04 0.09 0.05 0.05 0.22 0.25 0.14 0.25 0.34 0.29 0.29 0.13 0.08 0.09 0.14 0.16 0.18 0.44 0.93 1.40
0.06 0.06 0.10 0.05 0.05 0.12 0.24 0.14 0.08 0.02 0.02 0.01 0.07 0.12 0.30 0.11 0.03 0.01 0.05 0.02 0.13 0.03 0.09 0.02 0.02 0.01 0.00 0.08 0.02 0.00 0.01 0.01 0.00 0.02 0.00 0.02 0.00 0.06 0.03 0.00 0.00 0.01 0.00 0.03 0.05 0.04 0.11 0.20 0.01 0.00 0.04 0.00 0.00 0.00 0.01 0.02 0.02 0.01 0.00 0.01 0.17 0.12 0.17 0.05 0.08 0.07 0.02 0.18 0.08 0.05 0.01 0.05 0.19 0.75 0.05 0.18 0.27 0.32 0.25 0.31 0.25 0.23 0.19 0.24 0.44 0.54 0.35 0.36
0.08 0.17 0.16 0.29 0.01 0.02 0.30 0.14 0.04 0.06 0.05 0.02 0.07 0.24 0.09 0.03 0.01 0.12 0.05 0.12 0.10 0.02 0.10 0.02 0.01 0.01 0.04 0.00 0.00 0.00 0.00 0.11 0.00 0.01 0.03 0.02 0.10 0.02 0.02 0.02 0.01 0.00 0.02 0.03 0.09 0.01 0.01 0.02 0.04 0.00 0.00 0.00 0.00 0.00 0.00 0.00 0.01 0.00 0.01 0.00 0.02 0.08 0.03 0.12 0.26 0.05 0.25 0.13 0.04 0.04 0.02 0.28 0.64 0.44 0.18 0.17 0.11 0.15 0.11 0.10 0.12 0.17 0.18 0.19 0.24 0.15 0.20 0.30
0.04 0.06 0.02 0.06 0.05 0.35 0.12 0.15 0.04 0.03 0.03 0.02 0.08 0.17 0.06 0.01 0.11 0.01 0.07 0.12 0.13 0.07 0.10 0.05 0.02 0.02 0.02 0.06 0.00 0.01 0.04 0.05 0.06 0.03 0.05 0.01 0.01 0.04 0.01 0.01 0.00 0.00 0.09 0.00 0.17 0.08 0.01 0.05 0.00 0.00 0.00 0.00 0.00 0.00 0.01 0.00 0.28 0.30 0.00 0.09 0.07 0.05 0.02 0.09 0.00 0.01 0.01 0.00 0.04 0.03 0.12 0.15 0.08 0.33 0.32 0.38 0.25 0.19 0.27 0.29 0.26 0.26 0.28 0.24 0.23 0.26 0.28 0.22
0.08 0.05 0.10 0.07 0.07 0.15 0.06 0.04 0.03 0.04 0.03 0.05 0.10 0.07 0.02 0.02 0.00 0.02 0.03 0.14 0.16 0.07 0.12 0.18 0.18 0.02 0.05 0.05 0.03 0.01 0.04 0.00 0.11 0.02 0.18 0.01 0.11 0.00 0.01 0.01 0.00 0.00 0.01 0.00 0.08 0.01 0.13 0.13 0.01 0.00 0.02 0.00 0.00 0.00 0.00 0.00 0.00 0.09 0.04 0.11 0.01 0.00 0.04 0.05 0.13 0.08 0.03 0.03 0.04 0.00 0.06 0.29 0.07 0.90 0.35 0.45 0.21 0.17 0.25 0.28 0.26 0.34 0.33 0.32 0.51 0.37 0.39 0.49
0.34 0.04 0.13 0.36 0.06 0.08 0.10 0.12 0.02 0.05 0.05 0.03 0.03 0.03 0.01 0.03 0.00 0.00 0.02 0.14 0.09 0.07 0.14 0.10 0.28 0.01 0.09 0.06 0.04 0.02 0.08 0.03 0.37 0.04 0.12 0.02 0.23 0.01 0.06 0.06 0.01 0.01 0.00 0.01 0.01 0.15 0.00 0.09 0.05 0.00 0.00 0.01 0.00 0.00 0.00 0.00 0.00 0.02 0.07 0.03 0.03 0.19 0.14 0.08 0.01 0.03 0.08 0.01 0.07 0.01 0.07 0.15 0.16 0.50 0.23 0.28 0.29 0.22 0.23 0.27 0.33 0.34 0.40 0.37 0.42 0.84 1.03 1.17
0.14 0.19 0.42 0.18 0.29 0.15 0.00 0.01 0.02 0.06 0.04 0.07 0.01 0.03 0.01 0.00 0.00 0.02 0.04 0.11 0.06 0.06 0.11 0.08 0.24 0.13 0.06 0.05 0.06 0.01 0.01 0.15 0.06 0.25 0.18 0.21 0.11 0.15 0.18 0.01 0.10 0.00 0.00 0.01 0.03 0.02 0.01 0.02 0.05 0.00 0.00 0.03 0.00 0.00 0.03 0.03 0.00 0.00 0.00 0.00 0.03 0.02 0.07 0.16 0.09 0.19 0.04 0.22 0.03 0.06 0.12 0.30 0.15 0.40 0.19 0.23 0.17 0.28 0.22 0.23 0.37 0.40 0.54 0.74 0.57 0.66 0.78 1.27
0.23 0.36 0.55 0.28 0.28 0.11 0.00 0.00 0.03 0.04 0.06 0.05 0.03 0.02 0.00 0.02 0.02 0.01 0.06 0.07 0.08 0.08 0.10 0.04 0.10 0.22 0.18 0.08 0.11 0.07 0.02 0.02 0.08 0.37 0.08 0.55 0.16 0.03 0.09 0.02 0.05 0.01 0.01 0.01 0.01 0.00 0.02 0.00 0.10 0.10 0.00 0.00 0.07 0.01 0.04 0.09 0.12 0.06 0.02 0.01 0.02 0.02 0.03 0.03 0.21 0.07 0.16 0.28 0.13 0.16 0.16 0.32 0.41 0.20 0.11 0.23 0.21 0.23 0.21 0.49 0.74 0.71 1.10 1.37 1.53 1.52 1.52 1.50
0.18 0.55 0.40 0.15 0.15 0.22 0.00 0.10 0.18 0.09 0.05 0.06 0.02 0.02 0.01 0.01 0.02 0.04 0.03 0.05 0.05 0.04 0.05 0.02 0.04 0.06 0.24 0.20 0.07 0.01 0.00 0.01 0.04 0.22 0.05 0.11 0.28 0.45 0.00 0.09 0.00 0.05 0.00 0.04 0.01 0.10 0.01 0.00 0.01 0.05 0.03 0.02 0.02 0.00 0.03 0.00 0.04 0.04 0.08 0.13 0.07 0.16 0.26 0.23 0.40 0.02 0.10 0.19 0.21 0.11 0.22 0.47 0.42 0.10 0.15 0.17 0.36 0.31 0.30 0.48 0.61 0.77 0.43 0.49 0.56 0.40 0.41 0.70
0.23 0.28 0.89 0.46 0.44 0.12 0.06 0.20 0.12 0.12 0.07 0.06 0.09 0.01 0.02 0.00 0.04 0.05 0.06 0.07 0.05 0.07 0.05 0.01 0.00 0.01 0.03 0.24 0.24 0.04 0.07 0.03 0.02 0.09 0.11 0.31 0.30 0.32 0.07 0.01 0.01 0.03 0.03 0.11 0.06 0.12 0.09 0.06 0.03 0.03 0.07 0.25 0.03 0.06 0.00 0.01 0.00 0.03 0.03 0.16 0.01 0.13 0.13 0.27 0.28 0.39 0.16 0.17 0.22 0.28 0.27 0.60 0.17 0.21 0.42 0.48 0.68 0.27 0.49 0.45 0.61 0.62 0.85 1.17 0.54 0.38 0.46 0.79
0.26 0.70 0.70 0.67 0.84 0.62 0.24 0.17 0.12 0.20 0.13 0.09 0.03 0.01 0.00 0.01 0.04 0.05 0.07 0.07 0.07 0.04 0.03 0.01 0.01 0.01 0.08 0.04 0.14 0.19 0.02 0.04 0.00 0.09 0.06 0.12 0.17 0.08 0.04 0.04 0.03 0.02 0.00 0.17 0.00 0.12 0.01 0.02 0.03 0.02 0.14 0.09 0.02 0.01 0.02 0.00 0.01 0.04 0.03 0.01 0.08 0.19 0.15 0.27 0.36 0.45 0.24 0.24 0.16 0.19 0.23 0.50 0.31 0.20 0.52 0.75 0.46 0.40 0.80 0.99 0.71 0.43 0.49 0.50 0.48 0.66 0.56 0.51
0.41 1.01 0.68 0.85 0.87 0.59 0.43 0.31 0.30 0.11 0.08 0.11 0.03 0.02 0.02 0.06 0.04 0.07 0.09 0.09 0.06 0.04 0.03 0.01 0.03 0.01 0.05 0.06 0.08 0.17 0.06 0.08 0.04 0.01 0.06 0.05 0.26 0.01 0.01 0.02 0.02 0.09 0.09 0.32 0.17 0.26 0.51 0.39 0.08 0.26 0.11 0.08 0.11 0.07 0.03 0.03 0.03 0.09 0.07 0.08 0.06 0.04 0.10 0.13 0.10 0.16 0.24 0.15 0.27 0.28 0.38 0.36 0.51 0.48 0.35 0.59 0.69 0.84 0.78 0.56 0.67 0.61 0.45 0.51 0.65 0.66 0.51 0.74
0.72 0.75 0.98 1.00 0.72 1.00 0.65 0.22 0.24 0.07 0.23 0.08 0.10 0.11 0.10 0.04 0.05 0.08 0.10 0.17 0.05 0.03 0.02 0.02 0.00 0.03 0.01 0.04 0.08 0.06 0.05 0.03 0.11 0.03 0.03 0.07 0.40 0.01 0.01 0.01 0.01 0.17 0.05 0.05 0.03 0.13 0.15 0.25 0.16 0.26 0.34 0.19 0.32 0.27 0.18 0.18 0.09 0.05 0.01 0.02 0.02 0.02 0.15 0.10 0.12 0.12 0.19 0.12 0.10 0.46 0.73 0.34 0.47 0.52 0.45 0.34 0.24 0.47 0.65 0.66 1.03 0.91 0.82 1.07 1.56 1.81 1.60 0.88
0.95 1.02 0.83 1.29 1.19 0.44 0.27 0.23 0.27 0.32 0.24 0.17 0.09 0.16 0.09 0.19 0.05 0.05 0.05 0.10 0.06 0.06 0.02 0.01 0.03 0.01 0.02 0.01 0.03 0.08 0.02 0.01 0.06 0.05 0.05 0.30 0.26 0.05 0.02 0.05 0.00 0.03 0.04 0.03 0.06 0.05 0.33 0.10 0.26 0.35 0.32 0.47 0.26 0.33 0.19 0.05 0.08 0.20 0.10 0.05 0.06 0.04 0.20 0.31 0.28 0.27 0.26 0.13 0.25 0.41 0.39 0.54 0.64 0.58 0.40 0.58 0.49 0.59 0.79 0.62 0.70 0.59 0.71 1.36 1.36 1.17 1.09 0.99
0.48 0.98 0.83 0.88 0.54 0.82 0.52 0.35 0.28 0.21 0.48 0.36 0.18 0.26 0.29 0.12 0.19 0.11 0.04 0.22 0.05 0.05 0.01 0.07 0.09 0.05 0.04 0.01 0.06 0.12 0.10 0.05 0.02 0.02 0.13 0.10 0.32 0.34 0.02 0.01 0.02 0.01 0.01 0.02 0.03 0.11 0.19 0.14 0.22 0.21 0.24 0.19 0.20 0.25 0.15 0.03 0.30 0.19 0.15 0.09 0.09 0.04 0.10 0.17 0.13 0.43 0.20 0.24 0.45 0.36 0.42 0.16 0.54 0.51 0.46 0.38 0.44 0.51 0.37 0.60 0.40 0.34 0.27 0.24 0.53 0.64 0.60 0.41
0.54 1.04 0.83 1.41 1.08 0.73 0.57 0.52 0.20 0.96 0.36 0.29 0.26 0.10 0.19 0.20 0.16 0.31 0.13 0.09 0.07 0.04 0.05 0.03 0.17 0.11 0.01 0.10 0.17 0.06 0.18 0.10 0.04 0.05 0.05 0.12 0.22 0.98 0.31 0.12 0.14 0.10 0.02 0.07 0.05 0.14 0.54 0.22 0.20 0.19 0.26 0.17 0.28 0.27 0.17 0.19 0.19 0.25 0.40 0.39 0.24 0.11 0.27 0.30 0.23 0.11 0.16 0.36 0.42 0.47 0.40 0.35 0.39 0.46 0.32 0.29 0.33 0.50 0.42 0.57 0.36 0.40 0.41 0.29 0.37 0.36 0.25 0.35
0.80 1.04 1.14 1.00 1.10 0.58 0.44 0.75 0.49 0.37 0.43 0.30 0.17 0.20 0.16 0.35 0.24 0.18 0.20 0.28 0.16 0.15 0.14 0.12 0.11 0.04 0.04 0.02 0.08 0.12 0.14 0.25 0.07 0.08 0.11 0.34 0.11 0.36 0.36 0.41 0.27 0.37 0.06 0.08 0.09 0.07 0.08 0.42 0.42 0.32 0.33 0.40 0.20 0.21 0.23 0.24 0.23 0.22 0.26 0.21 0.31 0.34 0.34 0.27 0.24 0.29 0.25 0.27 0.27 0.47 0.50 0.72 0.46 0.49 0.39 0.45 0.30 0.50 0.55 0.42 0.27 0.62 1.53 0.46 0.67 0.72 0.40 0.27
1.16 1.33 0.97 0.54 0.88 0.61 0.32 0.39 0.60 0.45 0.28 0.14 0.18 0.15 0.19 0.21 0.48 0.24 0.20 0.22 0.13 0.19 0.15 0.21 0.08 0.13 0.08 0.04 0.10 0.26 0.18 0.13 0.21 0.14 0.26 0.11 0.10 0.12 0.38 0.43 0.53 0.52 0.46 0.40 0.13 0.17 0.02 0.75 0.07 0.46 0.35 0.42 0.41 0.23 0.37 0.43 0.32 0.41 0.33 0.24 0.30 0.41 0.40 0.32 0.17 0.21 0.21 0.39 0.52 0.18 0.30 0.52 0.88 0.61 0.34 0.35 0.50 0.66 0.26 1.25 0.77 0.51 0.74 0.66 0.72 0.83 0.73 0.43
1.06 0.90 1.33 1.13 0.62 0.54 0.37 0.23 0.22 0.35 0.50 0.33 0.16 0.20 0.24 0.20 0.33 0.33 0.26 0.13 0.06 0.05 0.07 0.17 0.05 0.15 0.05 0.10 0.09 0.12 0.10 0.06 0.05 0.14 0.18 0.06 0.18 0.16 0.14 0.34 0.05 0.23 0.13 0.40 0.45 1.49 0.37 0.85 0.23 0.44 0.34 0.49 0.47 0.48 0.64 0.42 0.37 0.57 0.58 0.43 0.28 0.42 0.46 0.37 0.45 0.75 0.33 0.41 0.32 0.15 0.35 0.53 0.96 0.96 0.67 0.97 0.90 0.35 0.36 0.84 1.00 0.93 0.93 0.70 0.58 0.82 0.66 0.55
0.66 0.65 1.22 1.11 0.78 0.23 0.48 0.09 0.17 0.19 0.28 0.43 0.44 0.35 0.25 0.43 0.16 0.15 0.07 0.10 0.11 0.02 0.05 0.05 0.12 0.33 0.17 0.13 0.14 0.12 0.08 0.06 0.03 0.02 0.04 0.06 0.10 0.17 0.08 0.17 0.02 0.04 0.12 0.15 0.50 0.32 0.36 0.37 0.22 0.47 0.28 0.29 0.37 0.51 0.59 0.96 0.84 0.42 0.50 0.43 0.36 0.33 0.26 0.39 0.28 0.70 0.54 0.65 0.33 0.33 0.27 0.25 0.44 0.40 0.58 0.86 0.76 1.15 1.00 0.66 0.75 0.99 1.25 1.18 1.02 1.16 0.87 0.48